FLOCK 4A-5 (44095 NORAD) Tracking and Keplerian Element Data

This shows tracking and keplerian element data for the satellite.

Feedback or suggestion? Click here.




ElementValue
Catalog44095
NameFLOCK 4A-5
Epoch Orbit430
Epoch Day119.67607487
Epoch Year2019
RAAN180.0093
Inclination97.4617
Eccentricity0.001135
Argument of Perigee183.6184
Mean Anonmoly176.4971
Mean Motion15.219333
Decay Rate5.87E-06
L11 44095U 19018T 19119.67607487 .00000587 00000-0 28812-4 0 9992
L22 44095 97.4617 180.0093 0011350 183.6184 176.4971 15.21933300 4309

Live tracking and technical data element details for FLOCK 4A-5 (NORAD 44095). FLOCK 4A-5 can be tracked NOW for your location showing map with azimuth and elevation plus other details from your city location.

Track the satellite on the map from your city or location and see movement details for azimuth, elevation, latitude, longitude, range, height, and movement on the map or in text.







IsCatalogInMostPopularTable: catalog: 44095, numindb: 24
Update: records affected: 1



GetName: 44095 FLOCK 4A-5

Hit Count: updated at: Tue, 16 Jul 2019 20:45:20 GMT